Theta_e
303 303 302 302 301 300 300 299 299 300 300 297 297 302 297 297 292 304 309 313 310 303 296 298 297 294 297 303 301 303 300 299 302 299 301 299 301 299 297 297 296 298 296 296 294 295 291 293 291 294 294 295 297 297 298 299 299 297 294 297 291 293 287 285 286 290 293 295 297 298 298 297 294 294 295 293 288 290 287 285 285 281 282 281 282 279 284
302 302 301 301 301 300 299 299 299 300 299 298 299 297 296 298 300 301 307 313 310 300 289 290 292 295 299 299 298 303 300 300 298 297 299 298 297 297 297 298 299 295 299 295 292 296 286 292 293 292 295 293 298 297 296 298 292 294 293 291 296 287 289 287 281 282 284 287 290 292 294 294 289 288 290 290 291 290 289 287 288 281 282 283 280 275 283
302 301 301 300 300 300 299 298 298 299 299 299 298 296 299 298 299 299 302 307 305 294 296 294 293 294 294 295 294 295 298 301 300 299 298 300 299 297 296 298 298 296 298 295 295 296 293 287 294 294 293 293 297 295 295 296 294 295 295 295 298 289 287 285 279 275 274 274 276 279 283 285 288 287 289 290 289 288 286 282 284 279 283 285 280 280 286
301 301 300 300 300 300 300 299 298 300 300 299 297 298 295 292 285 297 297 300 299 300 301 298 296 293 293 292 294 296 293 298 301 301 298 300 299 299 298 299 297 295 295 291 292 292 295 291 288 292 290 293 293 289 293 290 292 292 293 289 294 288 288 287 285 282 279 282 284 289 289 287 283 285 287 287 289 289 288 285 281 277 280 280 282 283 283
301 300 300 300 300 300 299 299 300 300 299 299 296 295 296 295 288 292 288 297 296 295 298 297 297 293 296 290 294 292 293 295 297 302 294 299 297 297 297 295 293 292 292 290 290 292 291 293 290 290 291 293 294 294 294 293 291 289 289 293 289 287 285 286 286 285 285 287 286 288 288 284 285 284 285 287 286 287 285 282 279 285 280 275 283 284 282
302 301 301 301 301 300 300 300 300 300 299 300 298 290 294 285 290 296 297 293 288 289 290 295 295 296 297 292 295 292 291 292 290 297 298 298 299 293 294 295 294 293 291 291 286 289 289 289 288 292 291 291 292 291 292 291 291 291 291 294 290 285 281 284 285 283 285 286 286 288 287 286 285 285 284 284 285 285 282 282 284 283 279 276 282 284 281
301 301 301 301 300 300 300 300 300 300 300 300 295 289 291 291 291 292 295 290 293 293 293 296 294 293 294 292 294 291 291 289 292 293 293 295 293 296 286 290 292 292 292 290 287 288 283 284 288 287 286 286 286 285 288 290 290 291 289 290 290 286 282 284 284 283 284 285 285 286 285 284 284 283 284 284 284 283 283 283 284 283 281 283 283 283 282
301 301 301 301 301 301 300 300 300 300 299 298 293 291 290 286 288 286 291 292 290 291 292 292 292 289 292 288 290 291 290 289 292 293 293 288 290 295 290 289 288 288 288 289 286 288 288 286 283 287 285 284 286 285 286 284 288 288 286 288 288 286 280 285 282 280 280 283 285 285 284 282 280 282 283 283 283 283 283 283 283 284 282 283 283 282 281
302 301 301 301 301 301 301 300 300 301 300 294 291 290 293 292 292 294 289 287 288 288 289 290 289 288 290 288 290 291 291 290 293 291 291 291 289 291 288 289 287 287 287 287 287 289 286 287 286 287 286 282 286 284 285 288 283 285 284 286 285 286 281 285 281 277 277 281 281 282 282 281 280 279 280 281 281 279 281 280 283 281 279 281 281 279 280
301 301 301 301 301 302 302 301 301 301 300 295 293 288 295 292 294 293 291 287 290 285 288 289 289 285 290 290 290 290 289 290 292 287 290 288 290 291 291 290 289 287 286 284 287 290 289 289 290 290 289 289 288 288 287 287 284 284 284 286 283 283 281 279 279 275 274 279 280 279 279 277 274 275 278 280 281 282 282 283 284 283 283 279 277 278 284
301 301 301 301 301 301 301 301 301 301 300 294 292 291 292 289 289 290 289 284 287 287 286 285 286 288 289 290 287 288 287 289 291 286 285 286 286 289 290 288 287 285 285 288 292 293 291 291 290 290 289 288 287 287 287 287 287 286 283 282 282 283 281 278 280 273 274 278 278 278 274 267 269 281 284 283 280 281 279 279 281 283 284 281 283 282 283
301 301 301 301 301 300 301 301 301 301 300 298 297 293 294 295 292 291 286 281 282 287 285 283 286 286 285 288 288 286 286 287 287 288 287 287 287 287 287 286 286 281 289 291 292 291 290 290 289 288 288 287 286 286 286 284 285 287 287 282 280 279 279 278 280 275 273 276 276 272 266 268 279 283 284 284 282 281 280 280 281 282 282 282 283 284 284
301 301 301 301 301 300 300 301 301 301 301 300 297 292 295 297 291 288 287 283 281 284 282 283 286 286 287 286 286 286 287 286 286 286 287 286 285 285 286 286 285 286 292 289 290 287 283 280 281 282 282 284 284 284 283 283 283 285 285 286 282 279 278 278 276 277 276 274 272 265 265 277 277 280 282 284 283 282 280 278 281 282 282 282 281 283 284
302 302 301 301 301 301 301 301 301 301 302 301 296 295 296 295 290 288 286 282 281 286 285 284 284 283 284 284 285 285 285 283 284 285 282 285 284 284 286 286 287 290 290 289 285 283 278 279 274 276 275 277 275 274 278 281 283 283 283 284 284 282 280 278 274 278 270 272 272 271 277 276 278 278 280 281 278 279 278 273 278 283 282 283 282 283 282
302 302 303 302 302 302 302 302 301 301 302 302 298 297 296 295 293 290 290 288 280 284 285 278 282 283 284 284 284 282 282 282 282 281 284 286 283 285 285 288 289 289 289 284 280 281 277 277 270 270 272 272 266 269 277 272 279 281 281 282 284 283 278 279 275 273 276 271 270 270 270 266 272 279 283 284 283 283 282 279 274 283 279 282 282 280 279
302 303 303 302 302 302 302 302 302 301 301 302 299 297 296 297 296 294 290 285 283 278 282 286 287 285 283 283 284 281 280 281 281 281 279 280 282 285 286 288 288 289 287 285 282 279 277 272 268 270 268 268 271 267 268 273 271 277 278 279 278 280 282 279 276 273 274 271 268 267 266 269 277 274 280 282 283 283 281 277 271 279 276 279 279 278 279
302 301 302 302 301 302 302 303 302 302 302 302 298 296 295 298 296 292 289 287 285 279 287 288 288 287 283 282 284 281 283 280 282 278 277 279 281 282 283 285 287 287 285 281 279 276 274 272 272 272 272 270 266 268 271 271 269 270 276 277 276 275 276 276 273 272 272 271 268 267 271 270 276 277 281 282 283 281 278 267 268 278 280 280 279 277 278
301 301 301 301 301 302 302 302 302 301 301 302 299 296 296 299 298 295 290 287 283 282 288 289 286 283 281 283 281 284 285 283 283 283 280 280 278 279 280 282 279 285 287 278 278 276 274 273 269 270 269 275 271 272 266 272 265 270 270 274 273 274 273 276 270 271 272 272 269 272 272 278 280 279 282 283 284 280 269 264 273 277 279 281 282 280 280
302 301 301 301 301 301 301 301 302 301 301 301 300 298 297 299 298 296 291 287 285 280 288 291 291 286 289 290 285 286 285 284 283 279 279 278 280 282 282 282 284 276 283 276 278 275 273 272 276 273 271 272 273 267 273 269 269 274 274 270 269 270 272 272 274 271 270 271 269 269 272 277 280 281 282 284 278 269 268 277 280 280 280 281 281 281 281
301 301 302 301 301 301 301 301 301 301 301 301 299 294 297 299 298 297 291 286 287 284 288 289 289 286 289 285 283 282 284 284 284 281 280 277 281 280 280 276 282 280 279 280 273 277 274 271 273 275 271 273 274 276 271 272 276 271 272 275 272 272 270 268 270 272 273 271 268 267 263 275 279 280 279 282 273 274 280 282 282 283 282 282 281 282 281
301 301 301 301 301 301 302 301 302 301 301 302 300 296 294 298 298 298 297 292 287 283 284 292 292 290 290 288 289 288 286 282 283 281 283 283 283 281 273 274 279 278 275 278 271 273 275 271 274 273 275 274 274 273 269 271 272 278 276 274 273 277 270 271 272 275 268 268 266 267 274 278 281 279 274 278 281 283 283 282 280 283 282 281 281 281 282
301 301 301 301 301 301 301 301 301 301 302 302 300 297 292 297 298 298 298 296 289 285 286 293 293 292 293 293 293 292 290 290 290 290 285 282 284 282 282 282 281 280 280 282 277 275 278 276 277 274 271 273 277 272 272 270 268 273 273 275 268 277 273 275 271 275 273 270 273 277 280 281 282 282 281 282 284 284 284 283 282 281 282 283 281 281 282
301 301 301 301 302 302 302 301 301 301 301 301 300 295 292 295 296 298 296 288 290 290 292 291 292 292 295 295 296 296 295 295 293 292 290 284 282 283 282 282 280 284 282 283 278 278 278 278 274 278 274 276 274 272 272 273 270 274 271 278 276 280 280 281 278 275 279 280 280 281 281 281 281 283 284 283 283 284 284 283 282 283 283 283 281 282 282
300 301 301 300 301 301 300 301 301 301 301 302 301 296 294 296 297 296 291 288 286 283 286 288 286 283 285 287 292 295 295 294 294 293 294 291 281 282 285 285 287 283 281 283 287 281 281 279 277 279 273 276 277 273 270 268 271 275 274 274 277 279 280 277 274 276 274 269 279 278 279 281 281 282 283 284 284 283 283 283 283 283 283 283 283 282 281
300 300 301 301 300 300 301 300 300 301 300 300 300 300 298 296 297 294 288 282 282 282 278 283 284 289 292 294 295 293 293 295 296 294 293 292 288 283 282 287 289 284 282 283 282 281 279 274 275 275 271 277 279 272 278 272 271 278 271 274 275 274 282 276 276 275 273 273 277 279 281 281 282 282 281 281 282 283 284 284 284 283 282 281 280 279 278
300 300 300 300 301 300 300 300 300 301 300 301 299 294 292 293 297 296 292 290 288 285 279 279 283 293 294 291 289 292 296 295 294 293 293 292 292 290 288 288 283 286 286 286 283 279 278 277 277 276 274 274 282 275 274 277 276 279 275 274 279 279 279 273 276 274 276 278 279 279 280 280 281 282 282 283 283 283 283 283 283 281 280 278 277 278 278
299 299 300 300 300 300 300 300 299 300 301 300 298 297 294 295 297 294 290 288 284 279 281 278 283 283 287 287 292 294 295 294 293 292 292 292 292 291 290 288 286 286 283 282 283 282 280 278 277 274 277 276 281 278 279 276 276 275 274 278 281 278 274 278 276 272 272 273 275 279 274 274 279 281 282 282 283 283 283 282 280 279 278 277 276 275 275
299 299 299 300 300 299 299 299 300 300 300 300 298 297 295 293 294 295 295 293 287 281 281 281 282 283 288 283 291 293 293 293 293 292 291 291 291 290 289 287 286 284 283 281 277 278 277 275 275 279 280 280 278 275 280 280 279 276 275 277 280 277 277 277 274 273 272 278 280 281 280 279 280 281 283 283 281 282 280 280 280 278 277 275 275 275 274
299 299 299 299 299 299 299 299 299 300 300 299 296 290 288 292 295 295 295 294 292 286 285 283 283 281 278 282 290 290 292 292 291 291 290 290 290 289 288 287 286 285 284 282 281 279 278 278 281 278 277 282 279 275 277 272 272 271 275 279 280 281 282 280 280 279 280 281 281 282 280 278 280 282 282 279 279 279 280 278 277 276 274 273 273 273 273
298 298 298 299 299 300 299 299 299 299 300 297 291 286 283 284 291 293 295 294 291 288 282 280 277 280 286 282 281 287 289 291 290 290 289 288 288 288 288 287 286 286 285 282 281 276 279 279 280 282 283 285 277 277 274 274 272 274 280 281 281 282 282 283 283 280 278 282 283 283 282 282 282 279 278 277 276 277 278 277 275 273 272 272 271 271 270
297 297 297 298 299 299 299 299 299 299 299 292 287 282 280 278 287 293 295 295 294 288 284 283 278 285 281 285 284 284 287 288 288 288 288 288 288 288 289 288 287 287 282 282 280 280 281 277 279 279 283 283 280 276 274 273 271 274 279 281 281 281 282 282 283 284 283 283 283 284 283 282 279 277 276 274 274 274 273 271 270 270 269 268 268 268 268
297 297 297 297 297 299 299 299 299 298 297 290 286 284 286 286 295 294 295 296 294 286 282 278 278 277 276 281 284 285 287 288 288 288 287 288 286 288 287 287 284 286 284 281 281 280 278 280 279 279 279 282 282 276 275 273 272 273 279 280 282 282 283 282 283 283 284 284 283 281 280 280 280 278 277 274 272 272 272 270 269 267 266 266 266 266 265
297 297 298 298 297 297 298 299 299 298 295 295 297 297 293 292 295 296 296 292 289 284 285 280 275 278 276 278 281 279 286 285 284 285 282 287 283 286 283 286 285 284 287 281 278 277 281 281 281 278 281 283 278 277 274 272 274 279 280 281 281 282 282 283 283 283 283 283 282 279 278 279 276 272 271 270 270 269 269 267 265 265 264 263 262 263 264
296 296 297 297 297 298 298 297 298 298 296 292 286 287 291 292 295 295 291 289 286 286 285 279 275 275 275 281 275 281 286 281 280 283 278 285 285 284 281 282 282 277 280 279 281 280 281 281 278 278 281 278 280 276 272 275 278 279 280 281 282 282 282 282 282 282 281 276 274 274 273 271 271 270 269 268 267 267 266 265 263 261 261 261 262 264 264
296 296 296 296 296 298 297 295 294 292 286 286 287 291 294 295 294 296 292 287 280 279 279 279 279 275 274 273 273 278 285 282 278 282 278 282 286 281 282 278 280 276 278 284 279 279 277 278 281 276 274 279 276 272 274 277 278 280 280 280 281 281 281 280 280 281 274 271 271 270 270 270 269 269 269 268 266 265 264 262 262 262 263 263 263 262 262
296 296 296 296 295 295 294 291 290 288 285 286 288 293 296 296 295 294 290 288 286 280 278 277 279 274 276 270 271 278 285 279 282 282 281 282 280 283 282 279 274 278 282 279 275 278 276 281 278 272 278 274 272 275 276 279 279 279 280 280 281 281 280 281 281 271 267 267 267 267 267 267 268 270 268 267 265 263 263 262 262 261 261 261 262 261 260
295 295 296 294 292 289 285 286 290 288 287 292 295 296 297 293 289 289 287 286 284 283 280 279 276 276 277 275 279 279 281 274 282 278 279 276 276 280 278 277 273 279 278 276 276 275 278 284 277 273 273 272 274 279 280 280 280 279 279 281 281 281 279 273 270 269 264 262 263 264 265 265 265 265 265 265 264 263 260 259 261 259 258 258 258 256 256
294 295 291 288 285 281 282 285 287 292 296 295 295 290 288 287 282 283 282 279 283 281 276 280 276 279 280 278 273 281 279 277 281 275 275 279 276 274 278 276 276 278 269 273 275 281 279 277 274 273 273 278 279 279 280 281 282 282 280 275 272 270 270 268 268 267 264 264 264 261 260 261 262 263 263 263 262 260 261 260 259 258 257 256 256 256 255
292 290 287 286 283 280 282 285 294 296 293 293 291 284 281 283 281 277 276 279 279 273 278 277 274 279 278 277 278 283 279 277 275 276 271 278 274 271 276 269 276 276 272 272 275 282 272 273 274 273 272 276 276 278 281 281 278 270 268 267 267 266 266 266 267 267 268 269 265 263 263 265 264 262 262 261 260 260 259 258 257 257 256 256 255 255 254
287 283 283 283 282 285 291 294 296 292 288 283 284 282 275 279 276 272 280 273 274 275 278 272 278 279 280 277 275 274 283 278 273 273 274 276 281 271 276 273 276 273 268 269 273 279 272 269 272 272 270 275 276 279 279 277 271 265 264 263 263 263 263 262 261 261 260 259 259 258 257 256 257 259 259 259 258 256 256 255 255 255 254 253 254 253 253
285 284 284 282 285 287 287 290 289 287 283 279 277 276 275 271 276 276 275 272 272 273 280 278 279 277 280 280 279 274 282 282 279 281 278 272 280 277 272 268 278 270 269 268 275 273 272 269 270 269 271 276 277 275 269 266 263 260 259 259 260 260 259 258 257 257 256 255 254 254 253 253 253 253 254 254 254 254 253 253 253 253 253 253 252 253 254
287 285 286 286 286 286 286 284 283 279 278 280 275 270 273 273 273 271 274 270 271 273 273 277 274 276 276 279 278 280 278 281 279 279 275 270 278 273 272 272 274 268 265 272 274 271 270 266 267 268 273 275 271 261 263 261 258 257 257 258 258 258 257 256 254 253 254 254 253 253 254 253 252 252 253 252 252 252 253 253 253 252 252 252 253 253 253
289 284 284 282 282 282 284 277 279 278 271 270 269 267 270 265 269 270 270 273 276 274 275 279 279 282 281 282 277 279 278 280 276 275 274 272 278 274 270 269 267 264 269 272 270 267 265 265 265 270 275 273 261 258 260 259 257 257 257 257 257 257 256 255 254 253 254 254 253 253 252 252 252 252 252 251 250 250 251 251 251 251 251 251 251 251 251
284 283 280 279 278 278 280 269 278 272 270 271 269 266 268 266 269 271 269 272 273 273 276 274 276 277 274 280 276 275 275 277 279 274 272 276 272 269 269 265 267 271 273 268 267 263 266 268 270 273 271 259 254 257 257 256 256 256 255 255 255 255 255 255 255 253 253 254 253 252 252 251 251 252 250 249 250 249 250 250 251 251 251 251 251 251 251
279 277 276 276 273 277 273 267 277 272 268 269 273 271 271 268 271 272 271 276 275 274 277 278 278 277 275 276 277 277 278 272 280 272 269 273 268 271 267 267 270 269 267 265 266 265 266 264 270 272 269 262 258 256 256 256 256 255 254 253 254 255 255 255 255 254 254 253 252 251 251 251 251 251 251 250 250 250 249 249 250 250 251 251 251 250 251
277 275 274 270 268 273 272 269 269 267 273 275 273 274 274 275 275 273 276 277 276 277 275 277 278 278 274 275 274 273 275 274 271 271 274 272 267 266 271 272 271 265 266 265 263 263 265 270 273 274 273 266 257 255 254 254 254 253 253 252 253 253 253 252 252 252 252 252 252 251 251 251 251 250 251 251 250 250 250 250 251 250 251 250 249 249 250
277 278 275 274 270 272 273 269 269 271 274 275 277 277 277 277 277 277 275 276 277 278 278 278 278 277 273 271 270 271 272 274 270 273 272 267 266 269 272 267 263 265 262 262 263 265 268 271 274 265 259 257 254 253 253 252 252 253 253 252 252 251 251 251 251 251 252 252 251 251 251 251 251 251 251 250 250 250 250 250 251 251 250 249 249 250 249
273 277 276 268 267 270 268 271 272 269 267 270 270 269 268 270 273 272 270 271 278 278 276 275 273 273 271 275 274 271 271 271 270 270 272 270 270 265 265 264 264 266 267 265 266 270 271 273 267 259 258 255 253 252 251 251 251 252 252 251 251 251 251 250 250 250 250 249 250 249 250 250 250 250 250 250 249 250 250 250 250 250 249 249 248 248 248
277 274 271 271 270 270 269 269 270 272 271 266 267 268 270 272 275 275 270 270 275 276 277 275 274 274 269 273 270 271 267 272 266 267 270 268 265 263 263 260 263 262 266 269 270 272 272 264 258 255 253 253 252 252 252 251 251 251 251 251 251 251 251 251 251 250 250 250 250 250 249 250 250 250 249 249 248 249 251 250 249 249 248 248 248 248 248
269 267 264 263 264 266 268 268 269 270 269 267 269 270 271 272 274 270 269 272 275 275 276 277 277 272 270 269 265 269 268 272 269 271 267 265 266 267 265 260 264 264 268 270 271 268 259 256 254 252 252 252 252 252 251 251 251 251 251 251 251 250 250 250 250 250 250 250 249 249 249 248 249 249 249 249 250 251 250 248 248 247 247 247 247 247 248
268 268 267 268 269 269 268 266 268 268 269 270 270 270 269 270 272 270 269 272 274 274 273 270 271 269 268 267 266 263 266 272 268 267 267 266 268 265 265 264 267 270 269 265 263 262 259 257 255 254 251 251 252 252 251 251 251 251 250 250 250 250 250 250 249 249 249 250 249 249 248 247 249 250 250 249 249 247 246 246 247 247 247 248 248 247 247
268 266 267 265 263 265 269 270 270 270 270 271 272 269 269 269 266 267 269 271 274 271 270 272 270 268 266 264 267 269 270 268 266 267 264 267 267 265 266 269 271 270 266 263 260 257 256 256 255 252 252 252 251 251 251 250 249 248 247 246 246 247 247 248 249 249 249 247 247 246 247 247 247 246 247 246 244 243 244 247 251 250 250 251 252 251 250
Wind_Speed
6 6 6 7 7 5 4 2 2 4 3 5 5 4 5 7 4 4 4 13 16 12 9 8 9 11 9 1 1 3 1 3 3 8 6 5 2 2 4 8 8 10 11 10 10 10 6 6 9 8 8 10 3 3 3 3 1 6 4 2 1 2 2 6 10 10 11 15 14 12 8 8 9 8 3 4 6 6 8 8 6 5 5 9 8 12 3
9 8 7 7 6 5 4 3 2 2 3 1 2 5 5 5 4 4 2 9 13 11 11 12 13 10 7 9 11 6 7 7 6 8 8 6 5 7 7 1 8 6 1 1 7 4 4 3 8 7 3 3 7 7 8 7 1 3 3 3 1 3 3 4 4 6 6 10 9 6 7 2 1 2 5 6 6 7 6 5 3 7 6 12 10 10 1
8 8 7 6 5 5 4 2 1 1 1 2 3 5 4 4 2 1 1 2 10 12 8 9 11 13 15 14 15 14 10 7 13 11 10 8 6 3 5 9 4 4 2 1 3 5 8 3 2 5 4 4 5 8 7 6 2 5 4 6 3 5 5 5 10 10 11 10 9 8 3 1 3 2 8 9 9 11 10 9 7 10 1 8 6 7 3
8 7 6 7 7 6 6 4 2 2 1 4 5 4 3 6 4 6 1 3 3 6 4 4 8 11 12 14 14 14 14 8 5 11 12 11 9 9 6 1 3 7 7 5 8 9 8 7 2 2 2 2 2 3 4 6 3 3 4 3 2 2 1 5 9 11 13 12 8 7 7 10 11 12 9 11 10 8 8 9 11 14 8 10 8 13 13
10 10 9 9 9 8 6 6 5 5 3 3 3 3 3 3 5 7 6 3 7 6 6 8 8 7 9 8 6 15 15 11 5 9 6 7 10 8 10 9 8 6 10 10 12 11 11 10 8 10 10 7 2 3 4 5 6 2 2 0 1 2 8 8 10 11 12 13 14 17 14 15 14 13 13 11 10 8 10 12 16 7 11 15 9 15 12
11 10 10 10 10 9 7 7 7 7 3 5 4 4 4 5 2 4 2 6 8 9 8 8 8 12 7 10 7 12 13 13 11 4 1 4 2 6 3 9 11 9 9 7 6 7 9 7 10 9 9 8 2 1 3 3 2 3 1 1 2 5 10 11 14 12 17 16 17 16 15 14 15 16 17 18 17 16 16 15 15 11 13 16 13 18 21
12 11 10 11 10 9 9 8 8 6 4 5 3 3 3 2 3 1 3 4 3 4 3 9 9 13 11 8 10 12 13 12 10 4 4 5 4 8 8 9 5 3 4 2 5 6 5 5 2 1 2 3 1 2 3 3 3 3 2 4 2 4 10 14 12 11 12 15 15 14 14 13 14 15 17 18 20 23 22 21 19 20 21 21 22 25 29
11 11 11 10 9 10 10 10 7 5 4 4 4 4 2 4 3 3 2 2 3 2 4 6 7 7 5 8 10 11 13 15 6 3 7 7 6 6 6 6 5 3 2 3 3 4 4 2 3 1 2 3 3 4 4 5 3 1 1 1 2 5 6 2 4 6 9 10 13 13 13 12 16 18 21 23 26 25 22 22 23 22 22 24 25 25 24
12 12 12 11 10 10 10 9 8 8 6 3 3 3 2 3 3 4 3 5 3 3 3 6 7 5 7 11 8 7 9 15 13 2 5 3 9 5 5 5 6 2 3 4 4 2 1 0 1 0 2 6 2 1 1 5 1 2 1 2 2 4 4 5 5 8 10 8 14 14 14 16 16 16 19 23 23 22 17 17 12 14 16 19 19 16 15
14 13 13 13 13 12 11 10 9 9 7 4 3 3 2 0 2 1 3 3 6 5 3 5 7 10 10 10 7 6 4 3 5 3 3 5 3 2 4 5 3 4 1 4 6 3 2 1 2 3 1 2 2 3 4 4 2 3 4 2 4 4 5 6 5 9 8 9 8 11 5 6 13 18 22 19 20 20 20 20 20 20 19 16 14 12 2
15 14 14 14 14 13 13 12 12 11 7 5 5 2 2 2 1 1 3 3 4 6 6 5 11 6 3 4 4 2 4 5 8 10 5 5 3 4 4 5 7 10 11 2 8 6 4 4 2 2 2 6 7 7 8 10 10 9 7 7 6 6 8 11 8 12 9 10 6 2 4 14 17 5 1 7 14 12 14 14 15 15 12 9 2 1 2
16 16 16 15 15 14 14 14 13 12 10 6 4 4 2 1 0 2 3 5 4 6 7 6 9 5 5 5 5 7 7 8 5 3 10 6 6 4 4 3 4 5 5 8 3 5 2 1 4 6 9 9 11 12 13 14 13 11 10 10 7 8 8 11 7 11 13 11 9 11 15 15 2 3 5 5 3 2 10 15 16 16 15 12 10 11 6
18 17 17 17 16 16 15 14 15 13 12 7 5 5 3 2 2 3 3 3 5 7 6 6 2 3 5 7 7 5 6 6 5 3 5 5 6 4 2 3 3 2 7 3 4 1 3 4 7 8 10 9 10 13 16 18 17 16 13 13 12 12 12 10 11 11 10 10 11 12 12 1 2 4 3 6 6 10 12 14 14 16 15 11 9 7 4
17 18 19 18 17 16 16 15 15 15 16 11 6 6 4 5 4 3 3 2 5 4 5 1 4 7 7 8 7 7 7 4 4 3 3 3 6 5 4 3 1 6 3 3 2 3 3 4 5 3 4 4 2 3 11 15 15 15 15 14 13 13 10 8 11 6 13 10 12 18 11 16 16 17 13 10 9 7 6 8 8 4 2 6 5 1 6
17 16 15 17 18 17 18 17 16 16 17 15 6 5 6 6 5 4 2 2 2 3 6 6 6 10 10 9 8 6 5 6 5 5 4 2 2 3 2 4 4 3 4 5 2 5 3 2 0 3 3 4 3 3 3 0 1 1 4 6 8 11 12 7 9 7 10 13 12 13 11 13 7 2 3 6 6 6 5 8 7 3 4 6 0 3 6
18 18 17 19 19 18 17 18 18 18 18 17 9 8 8 7 5 4 3 2 2 4 6 9 3 9 9 8 10 9 7 6 6 3 3 3 4 3 4 4 3 4 3 3 4 2 4 3 3 3 5 3 2 3 3 2 2 2 2 2 3 5 9 7 11 9 8 12 13 12 12 9 4 4 3 4 6 5 7 6 10 0 1 1 4 2 3
19 20 20 20 21 20 18 17 17 16 14 16 8 9 9 10 8 7 5 2 4 6 6 1 6 6 5 4 5 6 7 6 7 4 4 6 6 4 3 3 0 4 7 4 3 3 4 4 2 3 2 3 2 3 1 1 1 1 3 5 4 3 5 6 9 12 11 11 11 13 4 6 2 2 1 5 3 3 5 12 9 3 4 1 1 2 5
21 20 20 20 20 20 20 19 20 21 18 19 11 10 10 11 10 8 5 5 6 7 5 6 9 7 7 4 5 4 5 1 3 0 0 2 4 2 4 3 3 5 7 5 5 5 6 6 6 5 6 2 4 2 4 2 2 3 2 3 3 3 3 7 12 11 12 15 12 10 10 9 9 5 7 1 3 1 6 13 3 4 2 4 3 4 4
20 20 20 21 20 20 21 20 21 21 20 19 11 7 10 11 11 11 8 7 6 6 4 9 9 7 1 5 5 4 4 5 5 3 3 3 2 4 6 1 3 2 8 5 5 6 6 7 3 2 4 4 3 4 2 3 4 1 2 2 1 2 3 5 10 13 12 12 14 13 11 7 6 5 6 6 2 7 10 2 5 5 5 4 7 8 9
21 21 20 21 21 21 20 21 21 21 21 22 14 9 6 11 11 14 12 10 6 9 8 8 9 12 7 6 6 5 4 4 6 5 5 4 3 7 3 2 5 3 5 6 5 5 6 8 7 3 6 7 6 3 2 6 3 4 4 6 8 5 3 6 8 7 8 9 11 11 12 2 3 3 4 5 5 5 6 2 4 3 3 5 6 7 8
22 22 22 22 22 22 20 21 21 20 21 22 17 7 8 9 11 11 11 9 7 9 11 12 11 13 12 12 11 10 10 7 8 7 5 2 5 5 6 6 8 6 6 7 7 8 6 7 8 5 4 4 4 3 6 4 4 9 9 7 8 3 9 9 10 5 10 10 9 5 4 7 5 5 5 4 7 8 9 9 10 9 8 7 7 8 9
21 22 22 22 21 22 23 23 22 22 22 21 19 8 10 8 8 9 9 8 10 11 2 4 8 13 14 14 11 11 12 12 12 8 5 4 4 8 2 3 4 5 3 3 2 2 3 2 3 4 7 7 5 10 4 6 9 2 3 1 9 8 11 7 11 4 9 9 10 7 4 4 3 8 8 8 8 9 10 9 10 9 8 7 8 10 9
21 20 21 22 22 22 21 22 23 23 24 24 19 10 10 9 8 8 8 6 3 3 2 3 3 5 6 8 8 11 13 11 11 10 9 7 7 7 9 6 6 3 2 4 7 5 5 6 8 6 7 8 9 9 8 10 9 4 6 8 7 6 12 8 11 12 15 15 16 13 14 13 9 9 8 11 14 14 13 10 8 8 9 10 10 8 7
22 21 20 20 20 21 23 23 19 21 25 25 18 8 10 8 9 7 4 4 5 7 5 6 7 10 12 13 11 5 6 10 13 13 10 8 9 8 9 10 6 2 2 6 5 7 6 2 3 4 10 5 4 10 10 8 10 8 9 9 7 11 15 10 11 9 9 11 11 12 16 17 15 16 16 14 13 15 12 11 11 11 10 7 4 3 5
22 24 21 20 22 22 22 23 23 22 20 23 20 11 8 6 8 11 8 7 6 8 7 5 15 15 9 13 9 11 15 12 12 13 13 13 10 11 12 12 11 9 9 6 2 2 1 3 3 3 7 5 7 12 8 7 8 9 10 11 9 11 13 14 13 15 14 14 14 16 14 15 16 14 13 15 16 15 14 11 11 5 3 2 1 1 3
21 21 22 24 22 21 23 23 24 23 24 25 19 9 9 9 10 10 9 4 1 2 6 10 5 5 9 11 15 17 14 14 14 15 16 16 16 16 15 5 3 2 2 2 6 6 5 4 3 4 6 6 8 7 8 10 10 7 12 12 12 9 4 11 7 11 13 16 19 19 18 19 20 19 17 15 14 13 13 14 6 5 3 5 3 2 2
20 21 20 21 23 22 21 22 23 23 23 24 15 9 9 6 8 13 12 10 5 5 8 8 4 1 3 14 12 11 14 15 15 16 16 17 17 16 14 13 10 7 6 4 4 4 4 4 6 8 9 7 5 9 7 7 11 11 11 12 12 11 17 14 12 13 14 13 13 12 11 11 12 14 12 13 12 11 10 4 4 3 4 4 5 4 3
20 19 20 20 21 22 22 23 23 24 24 23 16 9 8 8 10 12 10 10 13 6 1 4 4 2 5 3 8 9 12 14 16 16 17 18 19 16 15 13 11 10 8 7 5 7 7 9 10 7 5 6 9 11 12 12 8 9 10 12 11 13 17 12 13 12 12 12 14 13 14 15 16 15 13 4 3 4 5 6 6 5 4 4 3 4 4
21 21 20 20 20 19 20 20 23 23 24 19 7 4 4 8 9 11 13 10 8 4 4 1 2 1 3 1 7 11 11 14 15 17 16 16 18 18 17 18 15 13 10 9 6 6 7 10 7 7 8 6 7 7 6 10 11 11 12 16 17 17 18 17 17 17 18 18 16 14 13 15 16 16 6 5 2 4 5 3 3 4 4 3 3 2 3
22 22 21 20 20 20 21 22 22 23 20 9 4 2 2 3 8 12 16 14 11 5 6 6 6 4 2 2 2 8 10 14 14 16 17 16 16 16 15 14 14 13 9 9 9 8 9 8 9 10 9 7 7 3 6 5 10 12 16 18 20 19 18 16 15 17 18 17 16 16 16 18 10 1 4 3 4 3 5 5 5 5 4 3 2 2 1
23 22 22 22 21 22 22 22 22 22 19 5 3 4 4 4 7 15 19 16 13 8 2 1 5 1 1 2 3 9 13 13 13 14 17 16 14 15 13 11 12 12 11 7 5 8 4 5 7 10 12 14 10 5 6 7 11 11 15 16 17 18 17 17 17 17 18 18 17 16 15 9 4 2 4 7 5 6 4 4 5 5 5 4 2 1 1
22 22 23 23 24 22 22 22 22 21 10 7 7 7 4 3 2 12 21 17 12 6 5 4 4 3 1 2 3 2 11 13 11 9 10 10 11 11 10 11 10 11 9 7 5 4 8 8 9 11 12 13 12 4 5 9 15 15 12 16 15 15 15 15 16 17 17 17 16 15 12 10 7 10 6 7 7 5 5 6 6 5 4 3 3 2 1
22 23 22 22 22 24 24 23 22 17 9 12 16 14 1 1 3 14 17 10 6 3 4 4 5 2 3 4 3 2 6 7 9 9 10 10 11 9 9 7 5 6 8 5 5 5 4 9 11 13 13 7 6 3 5 12 14 13 17 17 16 14 14 14 15 15 16 13 9 13 14 11 2 7 8 7 7 6 7 7 6 5 3 3 1 2 2
20 21 21 22 22 22 23 24 21 20 15 8 5 9 12 4 7 15 10 7 2 2 4 4 4 5 3 3 1 4 12 11 10 11 9 9 9 9 7 7 7 4 5 9 5 3 5 7 10 9 3 8 9 7 9 9 10 15 16 15 15 16 14 15 15 17 7 4 3 3 5 7 6 5 6 6 6 6 6 5 5 4 3 3 3 4 3
18 19 19 21 22 21 21 21 13 6 5 6 6 7 7 16 10 18 18 8 4 3 2 2 2 6 5 3 6 6 10 9 10 13 10 8 9 9 8 6 7 7 5 7 6 10 11 10 8 5 10 7 6 8 8 11 15 16 16 17 17 16 15 15 14 11 4 4 4 3 4 6 6 4 5 7 6 6 6 4 3 4 2 2 2 2 2
16 17 17 19 20 14 8 8 7 6 5 6 5 5 15 19 18 13 15 8 2 4 5 5 6 8 8 8 9 4 9 9 8 7 7 5 6 7 7 6 7 8 4 6 7 8 11 8 5 8 6 6 11 9 13 15 16 18 19 18 16 14 15 16 10 6 7 5 4 4 4 2 4 4 5 6 6 4 5 5 4 3 2 2 3 2 1
16 14 15 15 6 2 6 5 3 7 5 4 6 12 18 12 1 5 6 4 1 1 3 5 6 9 11 9 2 3 8 8 10 8 8 5 6 5 6 5 7 4 5 6 8 11 10 6 7 10 9 12 14 14 15 15 16 16 16 16 12 9 8 2 6 9 6 5 4 2 2 2 2 1 3 4 5 5 4 2 4 3 3 4 2 1 3
15 12 5 3 3 5 3 7 5 7 13 18 16 8 5 4 4 4 3 3 1 4 2 1 7 4 3 6 5 7 8 7 8 6 4 5 6 3 4 4 6 6 6 7 10 6 3 6 8 12 12 13 14 13 14 12 12 12 10 3 1 2 3 4 5 7 4 0 2 3 1 2 3 3 5 4 5 4 4 3 2 2 1 2 3 2 2
11 4 3 4 4 5 6 1 11 20 12 6 3 3 4 2 4 4 4 2 2 2 3 6 8 8 8 10 3 7 5 9 10 7 6 7 5 4 5 6 6 6 6 5 6 11 7 8 8 9 13 11 11 18 17 14 8 3 4 4 4 4 4 4 2 2 4 4 0 2 3 4 7 6 3 4 3 3 3 2 2 1 2 2 2 3 4
4 6 4 3 7 7 2 10 22 12 3 4 3 3 4 3 5 3 4 3 3 3 6 8 9 9 13 13 10 8 4 8 11 12 10 7 3 4 4 2 3 5 7 10 6 6 7 7 7 8 12 12 14 19 13 7 5 4 5 5 6 6 5 5 4 4 7 7 6 5 5 5 5 3 4 4 4 3 2 2 2 2 2 3 4 4 5
3 3 3 5 1 2 2 5 3 2 4 3 2 2 2 3 3 1 3 5 5 3 4 4 6 9 10 9 8 7 5 2 2 2 3 4 3 4 3 4 3 3 5 8 3 2 2 2 6 11 12 11 15 7 5 4 4 5 4 4 4 4 6 6 5 4 4 6 5 5 5 5 5 5 3 3 3 4 3 3 4 4 4 4 5 5 5
4 4 0 2 1 2 4 1 2 2 1 2 4 5 5 2 2 1 3 6 6 3 2 6 9 13 13 13 8 7 2 1 2 2 3 5 6 5 4 1 2 4 4 1 4 2 3 6 5 7 9 14 4 5 4 6 4 5 5 5 5 4 4 5 6 5 4 5 5 4 4 5 4 4 4 4 4 4 4 4 4 4 4 4 4 5 5
4 4 1 1 1 1 2 3 3 2 4 2 3 3 3 3 4 5 3 2 1 1 2 2 1 4 4 3 2 1 2 3 4 2 3 4 2 1 2 2 2 4 4 3 2 2 5 6 6 9 10 6 3 5 3 4 6 5 6 5 5 3 4 5 5 5 4 4 4 4 3 3 2 3 2 2 2 2 4 4 4 4 4 3 4 4 5
4 3 2 1 2 3 3 7 3 2 4 3 5 8 6 4 5 4 3 5 4 4 5 8 8 10 8 6 5 4 2 1 1 2 1 0 3 3 3 4 5 0 3 1 2 5 5 3 5 8 4 3 2 3 5 6 6 7 6 5 5 5 5 5 5 5 4 3 3 3 3 2 2 2 3 2 3 5 4 3 3 3 4 4 4 5 6
3 2 2 2 3 3 4 4 3 4 8 7 5 8 6 10 8 8 6 4 4 7 9 8 10 9 7 3 3 0 3 4 4 4 4 4 3 4 4 4 4 2 4 5 3 2 0 5 6 9 6 5 5 6 5 5 6 8 7 7 5 5 5 5 4 3 3 2 2 2 1 1 1 2 2 3 3 3 4 5 3 3 3 4 5 5 7
6 5 5 3 4 3 4 3 2 4 3 4 6 7 7 6 4 4 2 3 4 6 9 9 8 7 5 2 5 5 4 3 5 5 3 2 4 6 3 2 2 3 4 4 5 7 9 8 8 12 8 5 9 7 6 5 6 5 10 8 6 5 4 4 3 2 2 2 2 2 1 1 2 2 3 2 2 3 3 4 4 4 4 5 6 7 7
3 2 1 2 4 4 2 6 6 2 1 3 4 5 6 3 2 3 3 3 6 5 4 2 3 3 6 4 2 1 1 3 4 2 4 3 4 1 2 3 4 5 5 6 6 6 6 10 10 1 5 7 10 10 10 8 6 6 4 5 6 6 5 4 4 3 2 2 2 2 2 2 2 2 3 3 4 3 3 3 5 5 5 6 7 5 6
4 1 2 4 5 3 7 5 2 1 1 1 1 2 2 2 3 3 2 2 2 5 7 7 4 3 2 0 1 5 3 1 3 3 3 2 3 2 2 2 3 2 3 6 10 7 10 7 3 7 4 6 14 16 10 9 7 8 7 6 6 6 5 4 3 3 3 2 2 2 3 2 2 3 2 4 5 6 4 4 4 4 5 5 6 6 7
1 2 5 3 1 1 1 2 2 6 1 1 1 1 1 3 5 2 3 1 4 6 5 5 5 5 3 4 3 3 3 5 5 4 4 2 4 5 5 6 6 6 5 5 7 9 5 3 3 6 8 8 6 7 7 6 7 10 8 8 7 5 5 4 3 3 3 3 3 2 2 1 2 2 3 3 4 6 4 3 3 5 5 6 7 7 7
2 0 2 2 1 0 0 0 1 4 2 1 1 1 1 2 3 2 1 3 3 5 4 5 3 3 2 4 2 3 2 2 3 2 3 5 5 3 2 3 5 6 6 9 9 3 3 4 6 7 6 8 8 11 11 7 6 6 6 5 4 5 4 4 4 3 3 3 3 2 2 1 2 2 3 3 4 4 5 6 6 6 7 6 6 7 7
1 0 1 1 3 2 6 3 6 5 4 4 5 3 3 4 2 2 1 1 6 6 4 4 3 2 3 1 2 3 3 3 3 5 4 4 2 3 5 8 8 7 3 3 3 4 4 4 5 6 9 7 6 6 6 8 8 8 6 5 5 4 3 3 3 2 2 2 1 2 2 3 3 4 3 3 4 4 6 8 8 7 7 6 5 7 7
3 3 3 2 0 2 1 1 3 1 0 1 2 1 2 2 1 2 1 0 6 9 10 4 4 3 3 6 5 1 2 2 3 3 3 4 3 5 8 9 5 0 2 2 2 2 3 2 2 6 8 8 8 9 9 8 8 7 7 5 6 5 2 2 2 2 1 0 2 3 4 3 3 3 2 3 3 3 4 6 5 3 3 3 5 7 8
Wind_Direction
171 175 174 173 159 149 141 119 80 73 345 196 194 196 209 212 223 28 228 169 178 170 205 193 195 216 233 35 280 197 6 229 269 234 203 208 191 228 207 222 230 237 246 249 256 250 256 235 250 246 239 251 305 56 33 33 118 343 293 245 140 95 253 253 256 261 276 283 285 276 253 245 245 237 277 350 283 315 305 292 317 288 298 288 271 259 294
178 175 182 180 177 158 154 192 143 97 28 266 215 215 221 204 151 148 30 198 192 186 198 206 209 218 216 224 236 199 229 216 200 218 213 205 199 216 226 269 235 265 22 117 246 252 261 252 240 247 269 273 75 19 30 3 36 297 340 308 116 273 209 247 282 295 282 271 267 235 57 4 29 340 332 323 292 281 282 296 228 249 215 252 272 261 279
194 193 192 214 204 194 181 210 149 141 54 283 250 216 193 137 86 83 100 197 213 210 213 223 213 217 222 226 231 232 233 227 236 224 215 212 212 159 221 233 224 202 198 251 243 237 248 267 285 235 264 269 86 55 35 10 56 39 29 44 17 257 279 285 279 277 276 276 268 277 280 77 311 234 264 278 278 283 302 285 289 281 157 245 252 272 295
215 215 217 222 222 208 202 201 209 196 218 291 247 238 187 192 174 171 97 214 258 256 284 310 240 223 222 230 234 236 238 217 178 225 241 229 231 234 245 112 219 243 233 226 240 239 225 219 241 208 201 167 69 84 64 63 86 35 63 13 334 270 271 250 255 262 264 269 290 319 317 299 290 297 292 282 274 273 257 270 264 261 281 275 263 271 281
216 214 213 215 216 216 206 215 195 192 227 289 294 254 269 297 212 158 185 126 239 235 227 231 237 233 217 228 204 233 232 237 216 193 230 220 229 234 238 237 233 228 234 244 255 250 249 234 239 245 257 265 83 99 87 73 52 84 23 92 120 234 267 250 248 242 254 268 276 281 283 279 279 282 280 278 270 266 263 253 259 302 316 275 256 276 286
217 215 218 218 219 218 201 196 187 211 207 242 258 236 215 212 203 169 138 207 190 204 217 204 221 231 250 239 230 240 237 228 228 151 232 110 188 211 236 235 234 246 242 231 239 241 245 239 238 248 254 261 219 179 97 96 101 132 153 207 241 287 275 275 278 275 273 275 277 281 283 284 283 280 278 277 278 272 259 257 270 278 260 273 298 294 286
221 221 223 228 225 222 206 206 211 207 219 250 277 234 232 330 344 64 352 191 221 215 61 184 199 223 227 243 245 242 232 232 235 229 168 197 211 230 232 231 183 122 75 177 237 244 250 253 237 103 57 96 15 302 245 157 134 187 179 198 220 264 262 268 278 284 279 275 273 273 275 278 282 277 275 274 271 267 268 274 276 270 270 276 277 276 276
222 223 221 222 229 233 222 216 199 188 169 257 263 266 246 190 211 165 61 13 75 109 134 162 183 206 190 224 234 242 239 238 195 119 212 215 208 209 247 195 98 90 101 174 203 235 290 352 301 338 63 291 270 268 246 273 121 106 209 297 290 256 264 310 64 284 270 264 266 269 273 275 267 265 266 264 264 265 269 275 272 275 272 264 265 268 270
215 217 220 222 222 225 230 224 209 174 208 241 243 239 320 330 6 338 165 190 167 113 159 179 184 196 203 220 228 238 233 241 243 200 29 264 238 210 237 116 132 127 181 217 233 269 48 318 281 52 227 261 12 107 344 80 306 339 147 246 269 279 270 288 289 278 262 252 267 272 276 275 273 273 263 258 261 268 265 261 264 263 264 266 270 267 270
221 222 220 220 224 220 227 229 209 189 219 249 261 234 149 53 319 277 295 227 159 154 142 194 195 221 213 213 214 228 181 78 143 170 129 67 29 359 171 168 224 223 191 251 266 296 38 54 80 106 66 339 246 256 245 258 249 268 239 280 270 254 274 280 277 275 253 261 272 285 308 295 274 247 243 249 254 253 258 256 256 253 263 269 263 272 359
222 221 224 221 223 223 223 222 215 203 209 219 227 234 193 217 197 206 271 198 190 176 178 196 212 225 121 162 149 99 156 174 194 214 199 108 93 64 125 175 221 250 256 291 59 57 49 36 27 297 273 255 258 254 256 251 242 236 248 258 248 241 246 263 263 264 276 278 290 100 271 263 253 305 134 226 260 271 273 270 270 273 264 281 320 254 182
219 218 220 223 222 224 220 215 213 208 217 226 252 250 225 194 321 276 219 213 214 170 196 202 216 204 176 175 168 167 167 181 159 352 232 180 153 105 122 119 149 227 83 91 93 96 53 269 262 265 262 259 257 254 253 254 250 239 229 231 245 245 247 254 253 261 268 275 277 268 246 244 348 105 263 266 293 282 254 265 270 272 273 275 273 285 284
220 220 217 214 215 217 220 219 214 206 208 220 221 224 186 230 235 222 230 241 218 179 191 210 93 145 159 148 153 163 134 85 85 58 56 146 177 161 201 168 191 146 103 100 124 254 267 267 269 257 257 252 245 247 247 248 250 243 236 231 237 250 249 255 254 253 270 258 247 249 249 129 190 247 248 268 237 250 260 268 266 269 275 280 285 286 277
223 221 219 218 217 214 215 217 216 207 205 213 223 225 178 188 186 215 212 220 238 204 190 144 166 179 171 170 166 144 124 142 147 130 175 231 206 208 201 203 115 83 108 134 167 218 261 245 258 240 242 198 244 253 245 243 246 247 244 238 234 241 250 249 264 241 254 250 247 251 289 287 274 274 270 267 265 280 285 293 301 35 282 279 252 256 108
224 231 238 232 217 215 217 217 217 213 204 206 225 218 197 200 214 225 275 290 229 193 190 217 204 186 184 185 173 175 191 194 175 211 168 80 140 244 202 106 126 142 142 165 201 208 212 267 340 253 267 217 243 242 31 295 279 269 284 266 248 236 232 241 257 251 250 262 266 269 267 265 279 309 16 29 46 29 10 330 296 303 21 351 244 133 70
230 230 229 229 229 226 228 225 218 214 206 203 216 214 214 202 209 231 229 240 242 240 239 216 243 178 188 190 191 192 202 193 197 157 147 186 185 142 127 118 118 155 167 176 227 207 215 182 221 228 242 220 311 63 275 103 323 146 62 249 227 248 250 248 239 260 261 254 258 256 258 264 109 237 13 69 67 22 350 305 288 121 171 24 81 55 359
229 228 227 229 229 226 225 227 227 226 223 204 202 209 219 201 195 203 200 217 240 224 20 174 176 171 159 157 169 202 216 200 184 170 203 197 175 143 99 92 88 173 188 152 201 150 208 201 237 255 296 105 102 223 19 296 228 246 119 88 92 159 216 206 234 240 237 249 248 253 254 273 60 110 59 81 83 13 350 290 289 96 187 156 160 328 323
230 228 227 227 228 228 226 225 223 225 221 204 199 204 215 205 200 195 205 217 223 255 219 170 174 174 187 177 173 158 124 145 170 147 183 94 96 171 164 132 146 214 212 191 202 203 225 218 211 229 242 152 147 330 240 122 171 220 172 231 172 190 219 214 227 231 239 239 252 261 261 264 272 273 296 331 109 14 275 259 312 179 207 197 225 246 264
236 234 231 229 228 227 228 226 223 222 220 211 204 214 221 206 195 201 208 213 222 234 206 184 202 197 114 75 134 143 162 178 174 178 168 147 193 135 130 193 176 161 187 190 231 220 217 234 224 232 238 222 126 208 254 183 224 22 189 241 222 227 198 257 242 242 243 246 254 253 269 255 238 254 238 164 178 244 250 328 114 193 231 242 224 242 251
233 234 234 234 232 230 228 228 225 223 220 217 204 209 202 198 192 198 201 215 222 240 242 209 201 213 198 182 180 160 159 173 206 206 204 182 97 114 152 178 199 117 197 158 212 217 211 223 223 221 235 240 245 156 267 234 250 181 236 221 250 250 227 226 237 246 248 246 254 257 259 42 87 126 87 210 222 240 277 341 242 247 262 285 276 262 273
234 234 233 234 234 232 231 229 227 226 223 222 209 204 212 199 195 198 210 216 221 248 247 229 231 228 223 222 213 194 183 192 187 208 223 239 166 171 183 211 179 157 186 183 188 215 194 214 217 212 229 237 236 123 220 234 234 229 225 238 255 246 262 257 255 235 260 255 247 233 279 274 186 181 243 252 240 266 285 295 293 295 300 294 289 285 290
238 235 233 233 233 235 232 229 227 226 223 224 216 198 222 195 183 189 203 205 221 229 277 315 219 221 224 229 228 223 220 217 214 218 233 226 175 201 234 74 167 157 195 168 199 206 209 175 227 200 210 221 223 235 224 237 241 191 9 207 248 185 229 225 259 244 264 267 272 276 301 326 176 199 233 255 274 278 281 279 276 279 278 284 284 291 295
249 247 242 238 235 234 235 233 230 226 224 221 218 199 217 185 191 192 167 200 257 309 305 253 276 275 255 240 234 231 234 233 241 234 222 225 221 219 230 216 209 170 197 198 202 221 224 193 208 208 225 220 217 236 216 219 251 220 241 196 240 221 246 237 248 259 263 265 267 276 276 266 246 229 233 248 259 267 273 270 268 260 276 288 289 292 291
246 246 247 248 242 241 240 236 233 236 227 220 213 190 210 187 181 154 161 201 198 235 243 221 228 222 208 211 198 197 225 227 226 223 220 205 223 231 222 228 228 167 206 208 211 236 247 240 250 236 245 216 217 232 235 221 227 227 247 248 233 241 244 245 252 256 261 258 257 254 256 259 261 263 263 263 264 270 270 269 270 276 280 279 267 271 289
242 243 239 238 244 244 242 241 234 233 237 237 222 203 207 204 177 168 157 186 201 203 231 196 214 224 192 194 192 206 215 217 215 218 220 220 219 226 231 221 213 216 220 191 79 86 118 181 202 190 230 219 218 246 235 242 247 208 237 242 248 247 237 251 240 244 240 258 258 257 253 261 262 262 268 267 266 265 266 266 273 279 106 123 155 105 253
245 244 242 243 240 239 246 242 237 236 232 232 227 212 204 205 178 175 185 199 138 180 226 239 255 150 170 177 209 214 208 203 206 211 215 221 222 225 235 240 42 32 46 114 164 190 195 216 203 229 235 246 215 247 237 233 259 239 245 243 238 266 253 251 229 248 253 257 262 265 268 265 263 260 258 262 265 268 270 274 267 135 170 133 136 164 219
242 244 242 241 243 239 233 240 243 238 234 238 231 207 203 200 176 183 188 185 166 258 218 236 201 142 208 202 201 206 207 207 205 205 211 216 222 225 230 234 224 207 189 203 204 206 222 228 214 228 219 233 220 246 254 246 240 247 250 249 250 254 252 247 250 257 255 252 245 243 253 264 263 258 259 263 260 261 268 235 149 173 168 173 172 178 172
243 242 242 242 242 242 242 239 237 238 238 235 233 218 192 194 198 201 201 186 189 221 183 201 231 186 105 264 220 200 193 204 210 214 216 216 219 221 224 223 224 231 220 188 196 206 211 219 224 224 235 247 248 242 233 251 258 255 243 243 230 235 244 242 249 244 254 249 242 242 258 264 273 282 286 258 133 192 211 225 220 161 145 143 195 199 200
246 244 243 244 243 241 238 238 241 239 239 238 223 181 170 211 203 199 199 201 214 251 279 279 24 353 224 220 157 186 194 189 198 212 213 214 217 219 221 225 225 225 225 213 211 209 217 229 216 212 221 195 228 240 225 231 230 231 228 233 237 239 244 244 249 255 256 260 270 269 268 274 277 280 263 150 157 176 214 163 118 134 140 144 177 222 234
247 246 244 243 243 241 240 238 236 240 237 228 187 113 177 262 221 209 198 194 190 196 222 215 223 217 94 90 186 191 185 196 203 206 213 220 222 221 220 221 227 226 220 217 207 216 216 230 233 234 227 191 217 227 225 219 235 237 236 237 240 245 244 246 246 251 259 257 259 263 270 273 278 88 119 135 139 195 197 187 163 148 136 131 171 173 99
254 252 249 244 242 242 240 240 239 236 234 202 131 196 157 231 206 193 199 196 188 198 233 227 235 58 311 194 136 181 180 183 195 203 212 215 219 217 215 214 225 223 227 218 211 226 213 218 217 229 229 216 222 227 224 222 239 240 234 235 240 247 248 248 246 244 250 254 257 261 269 258 147 136 190 171 161 157 135 117 98 86 88 109 125 114 155
253 251 251 250 247 243 242 241 239 238 224 188 190 201 206 208 13 158 184 188 169 169 166 201 211 177 240 246 182 198 178 181 183 195 207 206 217 213 213 207 218 211 218 223 209 198 217 221 225 234 234 221 222 237 216 234 243 245 243 245 244 248 248 250 250 251 249 249 256 261 252 241 201 216 255 128 130 128 133 125 117 113 116 102 72 73 95
248 250 251 251 247 246 245 244 241 237 219 211 219 238 154 22 224 174 176 156 145 165 156 201 200 179 189 211 95 300 176 164 195 187 210 198 214 201 217 205 209 217 202 196 201 221 204 213 223 237 234 216 222 224 215 225 233 237 242 246 251 253 253 253 255 256 258 250 221 235 251 261 212 73 92 107 110 122 125 120 114 108 95 102 106 166 177
257 251 249 249 251 249 246 244 243 242 250 242 231 227 228 164 160 161 141 147 149 166 169 176 179 191 197 104 118 175 164 179 195 185 205 193 198 192 195 185 201 210 224 212 206 215 231 233 234 240 246 231 220 232 242 231 227 243 249 254 255 258 257 258 256 258 223 118 63 40 66 89 98 110 108 119 122 109 105 97 108 110 147 163 194 184 167
252 255 255 254 248 248 251 253 243 221 193 208 238 239 198 184 176 167 158 149 124 230 155 237 161 189 172 172 221 191 172 180 190 189 194 187 174 189 182 191 183 202 211 161 227 226 234 227 231 234 232 228 221 232 240 244 236 241 248 253 251 252 254 258 257 244 110 96 103 113 105 125 136 175 174 153 146 149 133 133 134 135 167 180 165 174 185
253 256 259 257 254 255 259 249 227 221 210 203 212 170 171 175 169 174 189 187 174 177 179 205 177 204 179 191 204 182 143 202 189 163 187 145 171 190 198 194 212 208 186 184 218 208 228 216 211 240 224 221 231 224 235 236 243 246 248 250 248 244 247 250 247 105 84 76 90 100 117 159 186 189 151 151 134 131 146 145 155 151 174 202 203 185 153
252 257 264 270 264 211 224 230 181 205 221 143 134 146 159 144 91 164 176 210 285 334 209 178 193 197 194 208 147 170 150 180 168 163 161 158 173 159 186 201 214 167 180 213 219 225 226 183 223 238 228 230 238 238 240 243 243 244 246 249 255 263 264 72 90 113 95 79 77 118 151 175 184 145 144 172 160 141 126 163 183 177 192 198 213 231 253
248 250 247 215 180 216 216 215 199 166 134 130 133 140 161 155 175 165 170 210 208 109 251 227 230 190 174 195 214 166 153 189 131 152 153 175 146 197 173 212 211 184 216 214 225 197 227 217 220 228 241 238 248 255 249 240 241 247 258 288 70 66 64 94 124 121 115 221 250 182 149 248 226 207 179 184 153 157 167 131 102 100 167 197 219 241 257
245 225 217 200 195 216 220 143 133 141 147 141 131 159 191 161 173 204 180 165 155 210 196 198 215 183 175 196 173 149 186 166 167 171 172 188 158 197 162 193 200 189 232 222 215 143 218 205 220 227 242 241 246 248 244 244 234 83 77 63 80 81 103 108 79 122 193 232 32 84 151 190 199 198 161 138 133 126 121 132 157 176 170 219 243 259 266
202 206 197 181 220 226 79 151 147 126 126 154 176 189 215 184 182 211 135 174 209 209 163 210 202 199 189 192 157 188 181 162 170 185 183 181 174 178 170 158 202 150 210 208 210 149 194 213 200 219 239 235 237 245 245 214 162 98 82 85 84 88 88 97 95 74 88 88 92 83 71 66 43 82 115 132 128 157 161 156 199 213 196 225 247 249 248
200 213 199 218 185 163 173 140 100 110 145 154 180 213 141 211 206 170 155 207 196 196 173 194 162 193 201 194 161 176 162 172 342 40 137 187 148 99 152 186 181 172 208 201 188 123 183 206 219 219 229 227 237 228 115 106 103 98 87 94 98 101 102 95 84 79 91 97 96 99 85 86 96 101 110 137 162 173 194 197 203 213 228 239 241 252 269
219 216 189 65 98 118 91 119 166 130 204 186 194 215 198 222 92 186 198 187 202 178 233 186 192 190 191 178 173 157 155 92 112 171 136 202 183 165 192 157 218 190 213 166 101 185 168 217 207 228 228 238 225 78 137 136 113 115 117 116 114 115 113 108 104 65 80 105 113 118 123 120 126 138 152 165 180 189 206 219 227 226 238 246 254 263 267
109 72 7 139 125 191 152 194 200 177 191 177 140 196 157 154 206 182 205 214 315 177 153 68 358 79 16 89 46 27 144 146 161 170 185 203 89 78 169 190 134 210 192 86 165 162 207 214 227 228 237 232 122 155 129 120 118 123 123 126 120 120 118 119 115 119 116 116 120 120 131 133 140 143 149 153 174 210 225 222 228 236 241 244 243 254 259
112 136 163 210 183 218 166 230 153 113 214 183 178 203 172 190 193 181 203 189 153 157 163 152 167 150 177 182 164 133 94 129 139 86 250 164 125 188 172 209 195 75 57 154 181 205 218 237 232 244 227 91 193 153 148 139 141 127 120 119 113 120 123 123 124 122 128 115 99 90 96 131 156 154 148 178 197 218 236 244 238 231 246 251 246 251 254
125 159 166 195 208 197 127 230 132 185 206 195 201 213 178 205 191 181 195 133 151 168 160 177 168 182 166 130 70 203 142 165 143 167 205 154 194 195 179 206 135 161 172 209 191 236 239 253 239 242 229 211 168 166 156 152 154 152 140 134 143 143 148 148 144 127 128 122 113 112 142 154 177 229 188 208 214 212 220 251 258 258 258 246 250 252 256
190 177 178 187 212 207 194 219 145 198 210 184 204 201 198 204 159 178 130 126 164 150 168 178 179 164 126 149 150 171 130 157 157 198 164 173 175 209 163 61 112 164 200 194 209 208 219 228 236 241 235 188 151 159 142 140 115 114 127 148 161 147 124 118 119 128 139 136 170 164 213 204 229 242 249 237 225 236 236 245 250 245 254 257 255 255 262
200 191 192 248 234 209 155 225 208 210 178 198 199 183 197 191 137 140 140 171 179 170 143 106 128 156 148 158 120 73 168 169 171 187 111 178 188 123 88 152 203 187 185 210 209 224 224 231 236 148 127 130 124 138 135 123 140 141 133 120 128 136 141 136 152 152 163 142 188 235 240 250 255 263 273 283 276 263 255 255 261 251 242 242 252 256 262
212 148 170 205 215 166 200 213 67 42 6 347 5 15 22 38 133 197 229 214 156 120 142 133 132 100 79 324 112 184 146 165 164 225 168 203 60 76 190 197 224 218 204 211 223 211 229 230 165 157 156 133 143 135 139 141 142 143 134 139 138 145 143 152 151 176 163 175 191 215 241 253 256 263 263 274 288 290 286 272 258 251 244 249 249 250 250
214 169 202 214 220 233 221 33 150 215 178 56 323 336 164 150 199 152 126 175 156 156 156 135 159 122 173 137 171 161 198 189 172 202 118 184 179 194 170 209 187 218 221 202 222 221 221 108 100 101 128 142 139 135 132 140 141 143 145 147 151 145 144 153 164 158 174 193 204 220 230 247 259 270 266 277 280 286 280 255 252 252 243 240 248 250 253
117 283 35 97 130 227 105 118 183 218 128 137 172 226 218 220 179 95 158 133 137 112 96 64 57 89 144 115 186 183 205 180 189 173 136 194 186 197 152 218 212 209 206 201 215 170 110 142 127 134 144 130 142 139 140 138 143 141 134 125 118 127 149 156 168 176 188 186 208 213 234 255 265 260 259 260 271 292 297 288 275 264 262 249 240 243 246
11 267 269 337 250 190 134 184 185 197 190 204 191 193 168 215 199 144 148 156 139 134 144 167 170 133 148 117 157 173 221 141 165 206 182 196 149 178 203 219 216 213 216 35 37 81 130 138 153 136 139 140 146 141 135 143 143 142 135 132 137 126 130 142 163 158 195 196 197 246 247 239 238 258 281 294 281 285 290 283 267 250 250 254 231 227 235
148 182 209 169 341 323 214 4 354 328 69 102 143 116 141 194 135 141 170 158 174 171 188 157 136 156 172 197 201 141 62 68 203 142 181 230 158 186 210 218 222 80 61 148 125 93 99 111 114 131 140 145 148 150 143 135 133 128 131 136 121 134 151 163 165 174 166 203 220 229 252 255 259 254 258 260 263 270 257 267 288 276 245 239 248 229 223